sat.trackr.live / text

‹ back to catalog

KUWAITSAT-1

NORAD 55103 · 2023-001CY

PAYLOAD ACTIVE UNKNOWN

§ Identity

Operator
Country
KWT
Launch date
2023-01-03
Launch site
AFETR
Launch vehicle
Mass (kg)
RCS (m²)

External: N2YO · Heavens-Above · Gunter

§ Orbital elements

Epoch: 2026-09-21T17:52:39.852480Z

Period
92.68 min
Inclination
97.3157°
Eccentricity
0.0009180
Mean motion
15.53688364 rev/d
Perigee alt
399.7 km
Apogee alt
412.2 km
Semi-major
6,784.1 km
B*
3.1067e-4
RAAN
337.3014°
Arg perigee
81.5276°
Mean anomaly
278.7017°
Rev number
20,756

§ Raw data

KUWAITSAT-11 55103U 23001CY  26264.74490570  .00019814  00000+0  31067-3 0  99982 55103  97.3157 337.3014 0009180  81.5276 278.7017 15.53688364207567

JSON: /api/v1/satellites/55103 · /tle

For live sub-satellite position, see the globe view (requires WebGL).

§ Visibility from observer

Set your observer location to see the next 7 days of passes ≥ 10°. The values pass through the URL so the page stays shareable.

No JS? Fill the form by hand. The geolocation button needs JavaScript.